Location: De Groeve
(53.3500°N, 6.7667°E)
Time: 16:00:38
(UTC+00:00)

Daily predictions for brighter satellites

Satellite Brightness Start Highest point End
(mag) Time Altitude Azimuth Time Altitude Azimuth Time Altitude Azimuth
Cosmos 2061 Rocket 4.4 19:56:31 10° SSE 20:02:22 45° E 20:08:18 10° NNE
Cosmos 2278 4.5 20:00:39 10° NNW 20:06:06 43° NE 20:11:32 10° ESE
SKYMED 3 4.3 20:03:23 10° NNE 20:07:21 74° ESE 20:11:18 10° S
SL-16 R/B 2.6 20:06:10 10° NNW 20:11:45 55° NE 20:17:19 10° SE
USA 306 2.4 20:08:54 10° SW 20:11:49 32° SSE 20:13:53 10° E
Cosmos 1437 Rocket 4.2 20:09:49 10° SE 20:12:13 17° E 20:14:39 10° NE
CZ-4B R/B 3.9 20:10:35 10° SE 20:15:06 45° ENE 20:19:43 10° N
Cosmos 1802 Rocket 4.0 20:10:00 10° S 20:16:11 89° WNW 20:22:22 10° N
Cosmos 1626 Rocket 3.9 20:12:50 10° N 20:17:07 52° ENE 20:21:23 10° SSE
Cosmos 909 Rocket 4.4 20:11:21 10° S 20:17:15 43° ESE 20:23:18 10° NE
CZ-4B R/B 3.1 20:14:35 10° SE 20:17:47 42° ENE 20:21:05 10° N
Cosmos 1459 Rocket 4.4 20:13:25 10° SSW 20:19:36 68° WNW 20:25:44 10° N
ADEOS 4.3 20:16:36 10° S 20:21:42 53° W 20:26:49 10° NNW
Cosmos 1452 Rocket 3.6 20:16:57 10° SSW 20:22:12 83° WNW 20:27:28 10° NNE
COSMOS 2406 3.9 20:18:08 10° SSE 20:23:11 33° ESE 20:28:15 10° NE
Cosmos 1607 3.9 20:17:17 10° SSW 20:23:20 64° SE 20:29:33 10° NE
Meteor 1-20 Rocket 4.5 20:20:06 10° N 20:25:36 58° ENE 20:31:10 10° SSE
USA 305 4.4 20:25:38 10° W 20:28:45 21° SW 20:31:39 10° S
Cosmos 1980 Rocket 3.5 20:24:39 10° NW 20:29:50 36° WSW 20:34:57 10° S
NOSS 3-3 (A) 4.0 20:25:04 10° SSW 20:30:03 47° ESE 20:36:00 10° NE
CZ-4 R/B 3.8 20:30:21 10° SW 20:32:42 16° W 20:35:04 10° NW
Cosmos 1302 Rocket 3.9 20:28:50 10° SSW 20:34:00 81° ESE 20:39:13 10° NNE
Cosmos 2333 Rocket 2.4 20:28:58 10° NNW 20:34:40 68° NE 20:39:56 12° SE
ISS -3.6 20:32:21 10° WSW 20:35:35 49° SSE 20:38:51 10° E
CZ-2C R/B 2.8 20:35:54 14° SE 20:37:55 34° ENE 20:40:30 10° N
Cosmos 1933 4.0 20:36:23 12° SSE 20:39:30 33° E 20:42:58 10° NNE
Okean O Rocket 2.2 20:35:19 10° S 20:39:31 53° W 20:43:46 10° NNW
Cosmos 1455 Rocket 4.1 20:41:52 10° SSW 20:46:08 49° WNW 20:50:26 10° N
Okean 1-7 Rocket 4.4 20:43:39 10° N 20:47:48 37° ENE 20:51:10 15° SE
Cosmos 2233 Rocket 4.1 20:43:13 10° SSW 20:49:25 81° W 20:55:37 10° N
Cosmos 2151 2.8 20:48:41 10° N 20:52:50 83° E 20:56:20 14° SSE
USA 290 4.5 20:55:01 11° E 20:55:01 11° E 20:55:49 10° E
Meteor 1-25 Rocket 4.3 20:49:25 10° N 20:55:08 72° ENE 20:59:57 14° SSE
Cosmos 2360 Rocket 2.5 20:50:41 10° NNW 20:56:20 61° NE 21:01:04 15° SE
Okean-O 3.8 20:53:45 10° SSW 20:57:50 38° W 21:01:56 10° NNW
SL-08 R/B 4.2 20:53:36 10° N 20:58:20 52° WNW 21:02:57 10° SW
Cosmos 1544 Rocket 3.5 20:54:53 10° S 20:59:13 72° E 21:03:32 10° NNE
NOSS 3-3 (C) 3.8 20:55:18 10° SSW 21:00:31 61° SE 21:06:49 10° NE
Nadezhda 4 Rocket 4.2 20:57:46 10° N 21:03:49 57° ENE 21:08:40 16° SSE
Cosmos 1782 4.3 21:01:19 10° SW 21:04:31 32° WNW 21:07:45 10° N
USA 186 3.9 21:08:04 10° SW 21:10:01 18° W 21:11:58 10° NW
SPOT 3 Rocket 3.9 21:05:47 11° S 21:10:41 60° WSW 21:15:47 10° NNW
Cosmos 2219 Rocket 2.7 21:05:34 10° NNW 21:11:06 52° NE 21:15:41 15° SE
NOSS 3-4 (A) 3.8 21:05:35 10° NW 21:12:06 87° SW 21:18:27 16° SE
NOSS 3-4 (C) 3.8 21:06:12 10° NW 21:12:44 88° SW 21:19:07 16° SE
Terra 4.3 21:09:57 10° SW 21:13:01 17° W 21:16:05 10° NW
Cosmos 1758 Rocket 4.2 21:08:56 10° NNW 21:13:13 53° W 21:17:15 11° S
Cosmos 2228 4.3 21:09:43 10° SW 21:13:34 38° WNW 21:17:26 10° N
DNEPR-1 R/B 4.3 21:11:16 10° NW 21:16:34 77° SW 21:21:28 18° SE
Cosmos 1805 2.7 21:15:51 10° N 21:19:09 82° E 21:20:57 24° SSE
CZ-4C R/B 3.1 21:15:12 10° WSW 21:19:43 48° NNW 21:25:37 10° NE
Ariane Rocket 3.3 21:16:11 14° S 21:20:32 62° WSW 21:25:35 10° NNW
ATLAS 2AS CENTAUR R/B 4.2 21:16:54 10° W 21:23:18 39° NNW 21:29:38 10° NE
Okean 1 3.8 21:23:00 24° SE 21:24:29 34° E 21:27:46 10° NNE
Helios 1B rocket 3.4 21:22:50 18° ESE 21:24:42 28° ENE 21:27:45 10° N
Cosmos 2322 Rocket 2.2 21:21:03 10° NNW 21:26:45 86° WSW 21:30:45 20° SSE
Cosmos 2026 Rocket 4.5 21:20:50 10° N 21:27:04 52° ENE 21:31:33 19° SE
Cosmos 1825 Rocket 3.6 21:23:10 10° N 21:27:31 71° ENE 21:30:13 23° SSE
Cosmos-2242 4.4 21:26:31 18° ESE 21:28:06 23° E 21:31:21 10° NE
Cosmos 2082 Rocket 3.0 21:26:28 10° SW 21:32:04 54° NW 21:37:41 10° NNE
Cosmos 1953 Rocket 4.0 21:27:49 10° N 21:32:05 48° ENE 21:34:30 23° SE
Cosmos 1602 Rocket 4.1 21:33:43 10° NNW 21:37:54 51° W 21:41:03 17° SSW
USA 306 1.2 21:36:13 10° W 21:38:27 58° W 21:38:27 58° W
Cosmos 1461 2.5 21:35:11 10° SSW 21:38:51 65° SE 21:42:31 10° NE
Cosmos 1763 Rocket 4.1 21:37:41 22° SSE 21:40:29 38° ESE 21:45:20 10° NE
Cosmos 2058 Rocket 4.2 21:41:14 21° SE 21:42:56 28° E 21:46:39 10° NNE
Cosmos 2237 Rocket 4.1 21:39:28 10° NNW 21:44:03 24° NNE 21:48:37 10° E
Cosmos 990 Rocket 4.0 21:40:18 10° NNW 21:45:30 77° ENE 21:48:41 24° SE
Cosmos 1437 Rocket 3.5 21:43:12 10° SW 21:46:35 44° WNW 21:50:04 10° N
GRACE-FO 1 4.4 21:45:38 28° S 21:47:21 89° W 21:50:52 10° N
GRACE-FO 2 4.4 21:46:06 28° S 21:47:49 88° W 21:51:20 10° N
Cosmos 1470 4.4 21:45:31 10° NNE 21:47:53 18° ENE 21:49:10 15° E
Cosmos 2278 4.4 21:44:51 10° NW 21:50:18 47° WSW 21:54:01 20° S
COSMOS 2428 3.7 21:45:22 10° NNW 21:50:47 41° NE 21:55:31 13° ESE
Cosmos 1464 Rocket 4.0 21:48:41 15° S 21:53:51 87° W 22:00:06 10° N
ARIANE 5 R/B 3.6 21:51:27 20° ESE 21:53:59 36° ENE 21:58:04 10° N
Cosmos 1777 Rocket 4.4 21:48:51 10° NNW 21:53:59 57° WSW 21:57:09 23° S
ALOS 2 3.9 21:52:22 18° ESE 21:54:54 31° ENE 21:58:47 10° N
SL-16 R/B 3.3 21:50:34 10° NW 21:55:39 35° WSW 21:59:25 16° SSW
Cosmos 1503 Rocket 4.2 21:54:29 10° NNW 21:59:39 64° WSW 22:02:35 25° S
CZ-2C R/B 4.5 21:57:35 10° ESE 22:01:27 21° NE 22:05:16 10° N
Cosmos 2098 Rocket 3.7 22:02:45 14° SSW 22:06:46 56° WNW 22:10:56 10° N
COSMOS 2406 3.8 22:01:33 10° SW 22:07:13 58° NW 22:12:55 10° NNE
TSX-5 4.0 22:04:52 10° NNW 22:07:51 43° NE 22:09:10 27° ESE
Cosmos 1076 Rocket 3.7 22:03:58 10° NNW 22:08:12 64° W 22:10:20 28° S
Cosmos 1092 Rocket 4.0 22:05:28 10° N 22:11:40 84° E 22:15:26 25° SSE
ISS -3.9 22:08:55 10° W 22:12:14 64° S 22:13:26 35° ESE
Cosmos 1354 Rocket 4.1 22:07:23 10° NNW 22:12:38 72° WSW 22:15:24 28° S
KORONAS-FOTON 4.2 22:14:10 34° ESE 22:14:44 36° E 22:17:54 10° NNE
Cosmos 1606 Rocket 4.0 22:12:11 19° SSW 22:15:10 59° WNW 22:19:27 10° N
Cosmos 2333 Rocket 3.6 22:13:49 10° NW 22:18:32 27° WSW 22:21:57 16° SSW
Cosmos 1726 Rocket 3.7 22:22:53 24° SSW 22:25:08 61° WNW 22:29:10 10° N
USA 290 2.4 22:27:26 34° SW 22:28:37 66° WNW 22:31:45 10° NNE
Cosmos 1833 4.1 22:24:57 21° SSW 22:28:46 74° ESE 22:34:24 10° NE
Helios 1A 2.9 22:25:24 10° NNE 22:29:19 71° WNW 22:31:16 28° SSW
Cosmos 372 Rocket 3.9 22:25:20 10° NNW 22:30:29 82° ENE 22:33:04 30° SSE
Cosmos 2034 Rocket 4.2 22:26:08 19° SSW 22:30:53 73° WNW 22:37:15 10° N
Cosmos 1271 Rocket 3.2 22:32:31 33° ESE 22:32:54 35° E 22:36:02 10° NNE
Cosmos 2297 Rocket 3.9 22:32:37 15° ESE 22:34:10 16° E 22:37:29 10° ENE
Cosmos 44 3.5 22:29:06 10° NW 22:34:31 72° SW 22:37:08 30° SSE
Aureole 1 Rocket 3.9 22:30:01 10° NNW 22:35:29 75° WSW 22:39:07 28° SSE
Cosmos 2322 3.7 22:31:45 10° NNW 22:37:30 80° ENE 22:40:49 26° SE
Cosmos 2360 Rocket 3.4 22:35:06 10° NW 22:40:01 31° WSW 22:42:48 20° SSW
CZ-2C R/B 3.7 22:35:59 10° NNE 22:40:26 65° ESE 22:42:11 35° S
NOSS 0 Rocket 4.2 22:34:17 10° NNW 22:40:29 66° NE 22:44:49 20° SE
Cosmos 1536 2.9 22:38:57 10° NNW 22:42:35 58° W 22:43:39 40° SSW
Cosmos 1707 2.3 22:43:37 49° WSW 22:44:00 55° WNW 22:46:49 10° N
CZ-2C R/B 4.3 22:39:50 10° NNE 22:44:59 33° E 22:47:32 23° SE
Cosmos 1937 Rocket 3.7 22:40:05 10° NNW 22:45:14 64° ENE 22:48:04 26° SE
Cosmos 540 Rocket 3.5 22:43:19 22° SSW 22:46:41 80° WNW 22:51:52 10° NNE
Geosat 4.4 22:44:40 10° NNE 22:49:39 64° NW 22:54:11 12° SW
Cosmos 1766 3.9 22:47:26 10° NNW 22:50:22 33° W 22:51:02 30° WSW
Cosmos 468 Rocket 4.0 22:50:54 30° S 22:53:29 72° ESE 22:58:45 10° NNE
Cosmos 2279 Rocket 4.0 22:51:01 29° S 22:54:27 76° E 23:00:43 10° NNE
Cosmos 2219 Rocket 3.1 22:49:46 10° NW 22:54:54 36° WSW 22:57:22 25° SSW
RESURS DK-1 2.2 22:51:01 10° NNW 22:55:00 88° ENE 22:56:19 41° SE
Cosmos 1634 Rocket 4.0 22:52:43 25° SSW 22:56:28 80° WNW 23:02:43 10° N
Cosmos 1842 2.5 22:56:34 66° S 22:56:57 87° ESE 23:00:07 10° NNE
Cosmos 1812 Rocket 4.2 22:55:56 32° SE 22:57:19 43° E 23:01:31 10° NNE
Helios 1B rocket 3.3 22:56:47 25° WSW 22:57:38 28° W 23:00:44 10° NW
ARGOS Delta rocket 4.0 22:55:34 10° NNE 23:00:39 72° E 23:03:04 33° S
Spot 4 4.0 23:02:25 33° SSW 23:04:22 60° WSW 23:09:08 10° NNW
Cosmos-2242 3.8 23:02:46 24° SW 23:04:50 43° WNW 23:08:49 10° N
CZ-4C R/B 4.2 23:04:24 10° WNW 23:09:13 32° N 23:15:19 10° ENE
Cosmos 2322 Rocket 4.0 23:06:16 10° WNW 23:09:59 18° W 23:12:32 14° SW
Lacrosse 4 Rocket 3.7 23:10:17 11° ESE 23:10:18 11° ESE 23:11:17 10° E
USA 234 3.4 23:06:51 10° ENE 23:13:12 50° SE 23:17:03 24° SSW
SL-16 R/B 4.0 23:10:10 10° NNW 23:15:08 29° NE 23:20:05 10° E
Cosmos 1898 Rocket 3.6 23:10:13 10° NNW 23:15:21 62° WSW 23:17:28 34° S
ATLAS 2AS CENTAUR R/B 4.2 23:09:29 10° NW 23:15:47 37° NNE 23:22:01 10° ENE
ACS3 Solar Sail 3.3 23:11:32 10° NE 23:16:15 24° E 23:19:38 15° SE
Cosmos 1975 2.7 23:13:20 10° NNW 23:16:59 62° W 23:17:46 47° SSW
GP-B 3.1 23:15:27 10° N 23:19:50 69° E 23:21:22 39° SSE
Cosmos 2058 Rocket 4.1 23:18:20 22° SW 23:20:40 38° WNW 23:24:45 10° N
Cosmos 2266 Rocket 3.9 23:14:56 10° N 23:21:01 88° E 23:24:11 30° S
Cosmos 1470 3.1 23:18:52 10° NNW 23:21:58 37° W 23:22:22 36° WSW
Cosmos 1763 Rocket 4.5 23:17:33 12° SW 23:22:09 44° NW 23:27:13 10° NNE
Meteor 2-9 Rocket 4.3 23:17:15 10° NNW 23:22:33 61° W 23:25:00 32° SSW
SeaSat 1 2.8 23:20:24 20° SE 23:23:44 63° NE 23:28:36 10° NNW
Meteor 1-11 Rocket 3.7 23:18:30 10° NNW 23:24:15 86° WSW 23:26:58 32° S
Cosmos 2221 2.4 23:26:58 40° SSW 23:28:22 76° W 23:32:35 10° N
Cosmos 2237 Rocket 2.3 23:23:19 10° NNW 23:29:02 78° NE 23:32:40 23° SE
ARIANE 5 R/B 3.7 23:28:49 27° SW 23:30:18 34° W 23:34:23 10° NNW
ALOS 2 3.4 23:29:45 30° SW 23:31:09 39° W 23:35:18 10° NNW
Meteor 1-10 Rocket 4.3 23:29:07 31° S 23:32:04 78° E 23:38:02 10° NNE
Cosmos 1980 3.7 23:27:18 10° NNW 23:33:00 86° NE 23:36:22 26° SSE
COSMOS 2428 3.0 23:29:40 10° NW 23:35:11 50° WSW 23:37:28 32° SSW
Meteor 2-4 Rocket 4.3 23:34:59 27° SSE 23:37:29 44° E 23:42:41 10° NNE
Cosmos 1655 Rocket 4.2 23:32:47 10° N 23:39:01 66° ENE 23:42:52 24° SSE
CZ-2C R/B 2.5 23:38:34 32° SSE 23:41:06 84° WSW 23:46:21 10° NNW
Cosmos 2227 Rocket 3.7 23:41:27 18° SE 23:43:45 23° ESE 23:48:07 10° NE
Sich 1 4.3 23:40:28 10° N 23:44:16 33° ENE 23:46:38 19° ESE
ISS -1.5 23:45:43 10° W 23:46:23 14° W 23:46:23 14° W
Meteor 1-27 Rocket 3.9 23:46:01 31° S 23:48:55 71° E 23:54:39 10° NNE
PSLV R/B 4.1 23:44:47 10° N 23:48:55 51° WNW 23:50:51 29° SW
CZ-4C R/B 4.0 23:46:10 10° NNE 23:49:14 32° E 23:49:49 30° ESE
BREEZE-M DEB (TANK) 3.7 23:43:37 10° W 23:49:32 44° SSW 23:54:36 10° SE
Cosmos 1238 Rocket 3.1 23:49:31 40° SSE 23:50:40 58° E 23:54:53 10° NNE
Cosmos 841 Rocket 3.5 23:49:45 30° SW 23:52:26 79° WNW 23:57:42 10° NNE
